EW3236 Weather Reports


Display with metric or nautical units.
time (UTC)temp
F
wind
direction
speed
MPH
gust
MPH
rain 1hr
in
rain 24hr
in
rain mn
in
humidity
%
barometer
mb
20260507120045 55 209 0.0 0.0 0.00 0.00 0.00 84 1016.1
20260507114545 55 209 0.0 0.0 0.00 0.00 0.00 84 1016.1
20260507113043 55 209 0.0 0.0 0.00 0.00 0.00 84 1016.1
20260507111545 56 209 0.0 0.0 0.00 0.00 0.00 84 1016.2
20260507110046 56 209 0.0 0.0 0.00 0.00 0.00 84 1016.2
20260507104539 56 209 0.0 0.0 0.00 0.00 0.00 83 1016.3
20260507103039 56 209 0.0 0.0 0.00 0.00 0.00 83 1016.4
20260507101556 56 209 0.0 0.0 0.00 0.00 0.00 83 1016.5
20260507100037 57 209 0.0 0.0 0.00 0.00 0.00 83 1016.4
20260507094533 57 209 0.0 0.0 0.00 0.00 0.00 83 1016.6
20260507093033 58 209 0.0 0.0 0.00 0.00 0.00 83 1016.8
20260507091549 58 209 0.0 0.0 0.00 0.00 0.00 83 1016.8
20260507090027 58 209 0.0 0.0 0.00 0.00 0.00 83 1016.8
20260507084527 58 209 0.0 0.0 0.00 0.00 0.00 83 1017.0
20260507083025 58 209 0.0 0.0 0.00 0.00 0.00 82 1017.1
20260507081527 59 209 0.0 0.0 0.00 0.00 0.00 82 1017.2
20260507080020 59 209 0.0 0.0 0.00 0.00 0.00 82 1017.4
20260507074519 59 209 0.0 0.0 0.00 0.00 0.00 82 1017.4
20260507073018 59 209 0.0 0.0 0.00 0.00 0.00 82 1017.4
20260507071516 59 210 0.0 0.0 0.00 0.00 0.00 81 1017.5
20260507070014 60 211 0.0 0.0 0.00 0.00 0.00 81 1017.5
20260507064515 60 253 0.0 0.0 0.00 0.00 0.00 80 1017.5
20260507063013 60 253 0.0 0.0 0.00 0.00 0.00 80 1017.6
20260507061527 60 253 0.0 0.0 0.00 0.00 0.00 79 1017.6
20260507060016 60 253 0.0 0.0 0.00 0.00 0.00 79 1017.6
20260507054512 61 253 0.0 0.0 0.00 0.00 0.00 79 1017.7
20260507053015 61 253 0.0 0.0 0.00 0.00 0.00 79 1017.6
20260507051511 62 253 0.0 0.0 0.00 0.00 0.00 78 1017.5
20260507050022 62 253 0.0 0.0 0.00 0.00 0.00 77 1017.6
20260507044525 62 253 0.0 0.0 0.00 0.00 0.00 77 1017.4
20260507043010 62 250 0.0 0.0 0.00 0.00 0.00 76 1017.4
20260507041509 63 246 0.0 0.0 0.00 0.00 0.00 74 1017.3
20260507040010 63 243 0.0 0.0 0.00 0.00 0.00 72 1017.3
20260507034509 63 247 0.0 0.0 0.00 0.00 0.00 69 1017.1
20260507033010 64 239 0.0 0.0 0.00 0.00 0.00 68 1017.0
20260507031507 64 217 0.0 0.0 0.00 0.00 0.00 67 1016.9
20260507030008 65 248 0.0 0.0 0.00 0.00 0.00 66 1016.9
20260507024506 65 253 0.0 0.0 0.00 0.00 0.00 64 1016.7
20260507023005 65 278 0.0 0.0 0.00 0.00 0.00 63 1016.5
20260507021505 66 261 0.0 0.0 0.00 0.00 0.00 63 1016.5
20260507020004 66 265 0.0 0.0 0.00 0.00 0.00 62 1016.3
20260507014504 67 244 0.0 0.0 0.00 0.00 0.00 62 1016.4
20260507013003 67 299 0.0 0.0 0.00 0.00 0.00 61 1016.3
20260507011502 68 272 0.0 0.0 0.00 0.00 0.00 62 1016.2
20260507010002 69 267 0.0 0.0 0.00 0.00 0.00 62 1016.1
20260507004502 69 233 0.0 0.0 0.00 0.00 0.00 61 1016.1
20260507003002 69 221 0.0 0.0 0.00 0.00 0.00 60 1016.1
20260507001503 69 272 0.0 0.0 0.00 0.00 0.00 58 1015.8
20260507000002 70 272 0.0 0.0 0.00 0.00 0.00 58 1015.8
20260506234600 70 250 0.0 0.0 0.00 0.00 0.00 58 1015.7
20260506233100 70 255 0.0 0.0 0.00 0.00 0.00 58 1015.7
20260506231558 71 254 0.0 0.0 0.00 0.00 0.00 58 1015.8
20260506230104 71 238 0.0 0.0 0.00 0.00 0.00 56 1015.9
20260506224558 71 242 0.0 0.0 0.00 0.00 0.00 56 1016.0
20260506223055 71 269 0.0 0.0 0.00 0.00 0.00 55 1016.1
20260506221556 72 250 0.0 0.0 0.00 0.00 0.00 55 1016.0
20260506220054 73 288 0.0 0.0 0.00 0.00 0.00 54 1016.2
20260506214552 74 277 0.0 0.0 0.00 0.00 0.00 53 1016.3
20260506213051 75 280 0.0 0.0 0.00 0.00 0.00 52 1016.4
20260506211550 75 240 0.0 0.0 0.00 0.00 0.00 51 1016.4
20260506210051 75 279 0.0 0.0 0.00 0.00 0.00 51 1016.5
20260506204548 75 268 0.0 0.0 0.00 0.00 0.00 51 1016.6
20260506203051 75 239 0.0 0.0 0.00 0.00 0.00 51 1016.7
20260506201607 76 271 0.0 0.0 0.00 0.00 0.00 47 1016.8
20260506200045 76 277 0.0 0.0 0.00 0.00 0.00 47 1016.9
20260506194550 75 211 0.0 0.0 0.00 0.00 0.00 47 1016.9
20260506193049 76 252 0.0 0.0 0.00 0.00 0.00 47 1017.1
20260506191543 76 261 0.0 0.0 0.00 0.00 0.00 46 1017.4
20260506190037 73 233 0.0 0.0 0.00 0.00 0.00 48 1017.4
20260506184546 74 279 0.0 0.0 0.00 0.00 0.00 47 1017.6
20260506183033 73 205 0.0 0.0 0.00 0.00 0.00 49 1017.7
20260506181532 72 256 0.0 0.0 0.00 0.00 0.00 50 1017.9
20260506180030 71 226 0.0 0.0 0.00 0.00 0.00 53 1018.1
20260506174527 70 217 0.0 0.0 0.00 0.00 0.00 54 1018.2
20260506173026 70 200 0.0 0.0 0.00 0.00 0.00 56 1018.3
20260506171525 68 296 0.0 0.0 0.00 0.00 0.00 56 1018.5
20260506170020 67 292 0.0 0.0 0.00 0.00 0.00 57 1018.5
20260506164517 66 274 0.0 0.0 0.00 0.00 0.00 61 1018.6
20260506163029 66 239 0.0 0.0 0.00 0.00 0.00 62 1018.6
20260506161511 64 248 0.0 0.0 0.00 0.00 0.00 64 1018.6
20260506160011 63 248 0.0 0.0 0.00 0.00 0.00 67 1018.6
20260506154503 62 161 0.0 0.0 0.00 0.00 0.00 69 1018.7
20260506153001 61 161 0.0 0.0 0.00 0.00 0.00 69 1018.7
20260506151557 60 161 0.0 0.0 0.00 0.00 0.00 72 1018.8
20260506150053 59 161 0.0 0.0 0.00 0.00 0.00 74 1018.9
20260506144550 58 163 0.0 0.0 0.00 0.00 0.00 79 1018.9
20260506143049 56 165 0.0 0.0 0.00 0.00 0.00 82 1018.8
20260506141553 55 195 0.0 0.0 0.00 0.00 0.00 85 1018.7
20260506140054 53 223 0.0 0.0 0.00 0.00 0.00 86 1018.7
20260506134545 52 223 0.0 0.0 0.00 0.00 0.00 85 1018.6
20260506133044 51 228 0.0 0.0 0.00 0.00 0.00 85 1018.5
20260506131543 51 228 0.0 0.0 0.00 0.00 0.00 84 1018.5
20260506130042 51 228 0.0 0.0 0.00 0.00 0.00 84 1018.3
20260506124540 52 228 0.0 0.0 0.00 0.00 0.00 84 1018.1
20260506123039 52 228 0.0 0.0 0.00 0.00 0.00 84 1018.0
20260506121537 52 228 0.0 0.0 0.00 0.00 0.00 83 1018.0